"STATION_ID","USDM_WEEK","SMVWC_5_CM_MEAN","SMANOM_5_CM_MEAN","SMPERC_5_CM_30COUNTS","SMPERC_5_CM_70COUNTS","SMVWC_10_CM_MEAN","SMANOM_10_CM_MEAN","SMPERC_10_CM_30COUNTS","SMPERC_10_CM_70COUNTS","SMVWC_20_CM_MEAN","SMANOM_20_CM_MEAN","SMPERC_20_CM_30COUNTS","SMPERC_20_CM_70COUNTS","SMVWC_50_CM_MEAN","SMANOM_50_CM_MEAN","SMPERC_50_CM_30COUNTS","SMPERC_50_CM_70COUNTS","SMVWC_100_CM_MEAN","SMANOM_100_CM_MEAN","SMPERC_100_CM_30COUNTS","SMPERC_100_CM_70COUNTS","SMVWC_TOP_MEAN","SMANOM_TOP_MEAN","SMPERC_TOP_30COUNTS","SMPERC_TOP_70COUNTS","SMVWC_COLUMN_MEAN","SMANOM_COLUMN_MEAN","SMPERC_COLUMN_30COUNTS","SMPERC_COLUMN_70COUNTS"
1120,20100202,0.094,0.598,0,1,0.08,-0.154,0,0.006,0.085,-0.326,0.365,0,0.058,-0.44,0.801,0,0.072,0.062,0,0.058,0.087,0.228,0,0.282,0.078,-0.042,0,0
1120,20100209,0.107,0.986,0,1,0.088,0.164,0,0.274,0.094,0.231,0,0.28,0.061,-0.112,0.256,0.036,0.068,-0.153,0.006,0,0.098,0.603,0,0.97,0.084,0.236,0,0.28
1120,20100216,0.108,0.872,0,1,0.089,0.211,0,0.256,0.096,0.355,0,0.375,0.066,0.242,0.03,0.369,0.074,0.262,0,0.292,0.099,0.56,0,0.708,0.086,0.416,0,0.536
1120,20100223,0.093,0.396,0,0.393,0.078,-0.147,0.071,0,0.084,-0.278,0.542,0,0.058,-0.224,0.345,0,0.074,0.419,0,0.304,0.086,0.156,0,0.125,0.078,0.035,0,0
1120,20100302,0.097,0.602,0,0.964,0.078,-0.103,0,0,0.081,-0.368,0.804,0,0.053,-0.606,1,0,0.065,0.02,0,0,0.087,0.345,0,0.494,0.075,-0.009,0,0
1120,20100309,0.1,0.747,0,1,0.081,0.131,0,0.089,0.086,0.131,0.006,0.143,0.055,-0.377,0.339,0,0.062,-0.108,0,0,0.091,0.618,0,0.893,0.077,0.282,0,0.369
1120,20100316,0.099,0.76,0,0.774,0.082,0.282,0,0.577,0.089,0.383,0,0.655,0.058,-0.01,0.131,0,0.063,-0.026,0,0,0.091,0.735,0,0.69,0.078,0.496,0,0.685
1120,20100323,0.093,0.755,0,1,0.077,0.163,0,0.042,0.083,0.158,0,0.048,0.056,-0.072,0.054,0,0.065,0.169,0,0,0.085,0.661,0,1,0.075,0.432,0,0.375
1120,20100330,0.091,0.939,0,1,0.076,0.13,0,0.167,0.081,0.185,0,0.161,0.055,-0.116,0.042,0,0.064,0.155,0,0.018,0.084,0.711,0,1,0.073,0.457,0,0.56
1120,20100406,0.083,0.796,0,0.869,0.073,0.105,0,0.149,0.08,0.188,0,0.304,0.054,-0.043,0,0,0.063,0.133,0,0,0.078,0.522,0,0.661,0.071,0.337,0,0.429
1120,20100413,0.047,-0.118,0.274,0,0.052,-0.431,0.47,0,0.067,-0.337,0.357,0,0.05,-0.264,0.119,0,0.062,0.155,0,0.012,0.05,-0.34,0.482,0,0.056,-0.325,0.399,0
1120,20100420,0.025,-0.503,1,0,0.032,-0.707,1,0,0.054,-0.553,1,0,0.046,-0.34,0.244,0,0.06,-0.03,0.012,0,0.029,-0.738,1,0,0.043,-0.623,1,0
1120,20100427,0.02,-0.361,0.982,0,0.022,-0.674,1,0,0.043,-0.559,0.958,0,0.042,-0.291,0,0,0.056,-0.174,0.286,0,0.021,-0.635,1,0,0.037,-0.553,0.994,0
1120,20100504,0.018,-0.316,0.976,0,0.017,-0.537,0.994,0,0.032,-0.525,0.81,0,0.036,-0.249,0,0,0.055,-0.143,0.048,0,0.018,-0.526,1,0,0.031,-0.482,0.5,0
1120,20100511,0.019,-0.337,0.81,0,0.014,-0.621,1,0,0.025,-0.64,1,0,0.028,-0.377,0.173,0,0.052,-0.199,0.149,0,0.017,-0.55,1,0,0.028,-0.596,1,0
1120,20100518,0.015,-0.502,0.893,0.083,0.014,-0.487,0.917,0.083,0.027,-0.451,0.917,0.083,0.02,-0.534,0.887,0,0.049,-0.209,0.018,0,0.015,-0.468,0.911,0.083,0.025,-0.542,0.917,0.083
1120,20100525,0.041,0.598,0,0.524,0.047,0.242,0,0.292,0.068,0.407,0,0.399,0.038,0.057,0,0,0.051,0.083,0,0.054,0.044,0.342,0,0.44,0.049,0.278,0,0.351
1120,20100601,0.02,-0.229,0.494,0,0.021,-0.403,0.696,0,0.039,-0.218,0.357,0,0.029,-0.143,0,0,0.047,-0.03,0,0,0.021,-0.401,0.542,0,0.031,-0.258,0.393,0
1120,20100608,0.051,0.68,0.077,0.655,0.031,-0.258,0.345,0,0.036,-0.336,0.607,0,0.019,-0.348,0.024,0,0.043,-0.181,0,0,0.042,0.016,0.244,0.143,0.036,-0.159,0.339,0
1120,20100615,0.035,0.11,0.101,0.179,0.027,-0.4,0.661,0,0.045,-0.272,0.369,0,0.018,-0.436,0.411,0,0.039,-0.231,0.048,0,0.031,-0.319,0.429,0,0.033,-0.32,0.589,0
1120,20100622,0.013,-0.701,0.994,0,0.009,-0.922,1,0,0.019,-0.911,1,0,0.011,-0.743,1,0,0.032,-0.394,0.726,0,0.011,-0.956,1,0,0.017,-0.918,1,0
1120,20100629,0.008,-0.914,1,0,0.007,-0.94,1,0,0.012,-1.114,1,0,0.005,-0.953,1,0,0.023,-0.621,1,0,0.008,-1.066,1,0,0.011,-1.207,1,0
1120,20100706,0.044,0.324,0.161,0.565,0.044,-0.116,0.161,0,0.073,0.222,0.155,0.524,0.04,-0.094,0.173,0,0.027,-0.457,0.917,0,0.044,-0.028,0.161,0.149,0.045,-0.093,0.161,0.024
1120,20100713,0.03,-0.191,0.458,0.214,0.028,-0.383,0.589,0,0.045,-0.292,0.268,0,0.036,-0.134,0,0,0.032,-0.282,0.613,0,0.029,-0.387,0.571,0,0.034,-0.364,0.429,0
1120,20100720,0.039,0.122,0.113,0.298,0.03,-0.32,0.506,0,0.036,-0.444,0.429,0,0.023,-0.383,0,0,0.03,-0.316,0.661,0,0.035,-0.216,0.304,0,0.032,-0.381,0.411,0
1120,20100727,0.012,-0.714,0.994,0,0.008,-0.763,1,0,0.017,-0.857,1,0,0.011,-0.687,0.804,0,0.023,-0.597,1,0,0.011,-0.893,1,0,0.014,-0.888,1,0
1120,20100803,0.046,0.105,0.179,0.31,0.029,-0.554,0.619,0,0.036,-0.679,0.952,0,0.006,-0.893,1,0,0.019,-0.816,1,0,0.038,-0.404,0.452,0,0.027,-0.734,1,0
1120,20100810,0.041,-0.149,0.536,0.226,0.031,-0.676,0.542,0,0.053,-0.538,0.542,0.167,0.03,-0.551,0.619,0.149,0.021,-0.856,1,0,0.036,-0.56,0.542,0.06,0.035,-0.717,0.542,0.024
1120,20100817,0.06,0.279,0,0.167,0.052,-0.365,0.577,0,0.073,-0.168,0.321,0,0.055,-0.129,0.119,0,0.035,-0.754,1,0,0.056,-0.092,0.149,0.077,0.055,-0.265,0.476,0
1120,20100824,0.065,0.504,0.06,0.655,0.05,-0.399,0.631,0.006,0.07,-0.189,0.631,0.244,0.054,-0.112,0.643,0.351,0.044,-0.622,0.911,0,0.058,-0.016,0.22,0.155,0.056,-0.204,0.631,0.155
1120,20100831,0.068,0.666,0,0.798,0.054,-0.177,0,0,0.074,0.014,0,0,0.056,0.139,0,0.095,0.063,0.306,0,0.488,0.062,0.171,0,0.167,0.063,0.143,0,0.137
1120,20100907,0.035,-0.168,0.518,0.054,0.034,-0.582,0.655,0,0.059,-0.357,0.458,0,0.047,-0.123,0.012,0,0.063,0.339,0,0.5,0.035,-0.585,0.673,0,0.047,-0.463,0.548,0
1120,20100914,0.031,-0.266,0.756,0.244,0.023,-0.761,0.756,0,0.035,-0.958,0.78,0,0.025,-0.98,0.994,0,0.055,-0.012,0,0,0.027,-0.742,0.756,0.071,0.034,-0.961,0.756,0
1120,20100921,0.034,-0.201,0.417,0.012,0.028,-0.589,0.673,0,0.04,-0.786,0.863,0,0.015,-1.386,1,0,0.045,-0.359,0.464,0,0.031,-0.546,0.649,0,0.032,-0.839,0.887,0
1120,20100928,0.024,-0.559,0.887,0.107,0.016,-0.912,0.899,0,0.021,-1.369,0.923,0,0.007,-1.64,1,0,0.033,-0.854,1,0,0.021,-0.889,0.893,0.018,0.02,-1.256,0.94,0
1120,20101005,0.072,0.326,0,0.262,0.056,-0.243,0.244,0,0.083,0.047,0.071,0.155,0.05,-0.211,0.202,0.006,0.033,-0.955,1,0,0.064,0.09,0.113,0.161,0.059,-0.131,0.125,0.036
1120,20101012,0.032,-0.558,0.768,0,0.035,-0.703,1,0,0.058,-0.541,0.97,0,0.048,-0.335,0.387,0,0.043,-0.656,0.935,0,0.033,-0.736,1,0,0.043,-0.647,0.994,0
1120,20101019,0.019,-0.742,1,0,0.019,-1.062,1,0,0.035,-0.975,1,0,0.036,-0.659,1,0,0.044,-0.592,0.56,0,0.019,-1.107,1,0,0.031,-1.016,1,0
1120,20101026,0.018,-0.649,1,0,0.015,-1.177,1,0,0.023,-1.107,1,0,0.024,-0.93,1,0,0.041,-0.666,0.994,0,0.017,-1.213,1,0,0.024,-1.173,1,0
1120,20101102,0.016,-0.739,1,0,0.012,-1.111,1,0,0.018,-1.048,1,0,0.016,-1.07,1,0,0.039,-0.731,1,0,0.014,-1.32,1,0,0.02,-1.126,1,0
1120,20101109,0.049,0.345,0.155,0.589,0.03,-0.555,0.339,0,0.018,-0.891,1,0,0.011,-1.07,1,0,0.036,-0.766,1,0,0.04,-0.324,0.327,0.137,0.029,-0.624,0.589,0
1120,20101116,0.039,-0.051,0.131,0,0.027,-0.692,0.804,0,0.025,-0.739,1,0,0.01,-0.921,1,0,0.034,-0.778,1,0,0.033,-0.513,0.554,0,0.027,-0.772,1,0
1120,20101123,0.06,0.398,0.036,0.339,0.042,-0.403,0.065,0,0.03,-0.727,1,0,0.011,-1.006,1,0,0.033,-0.767,1,0,0.051,-0.106,0.042,0,0.035,-0.653,1,0
1120,20101130,0.049,-0.024,0,0,0.034,-0.641,0.863,0,0.03,-0.807,1,0,0.012,-1.06,1,0,0.033,-0.688,1,0,0.042,-0.558,0.661,0,0.032,-0.815,1,0
1120,20101207,0.041,-0.513,0.613,0,0.028,-1.294,1,0,0.028,-1.514,1,0,0.012,-1.053,1,0,0.033,-0.81,1,0,0.035,-1.062,1,0,0.028,-1.33,1,0
1120,20101214,0.034,-0.916,1,0,0.024,-1.798,1,0,0.026,-2.331,1,0,0.011,-1.177,1,0,0.032,-0.871,1,0,0.029,-1.752,1,0,0.025,-1.77,1,0
1120,20101221,0.048,-0.585,0.506,0,0.031,-1.628,1,0,0.028,-2.2,1,0,0.011,-1.47,1,0,0.031,-0.938,1,0,0.04,-1.588,1,0,0.03,-1.661,1,0
1120,20101228,0.063,-0.274,0.429,0.006,0.041,-1.342,1,0,0.033,-1.928,1,0,0.011,-1.651,1,0,0.03,-0.837,1,0,0.052,-1.059,1,0,0.036,-1.475,1,0
1120,20110104,0.069,-0.118,0.321,0.137,0.047,-1.243,1,0,0.039,-1.9,1,0,0.012,-2.052,1,0,0.029,-0.794,1,0,0.059,-0.808,0.899,0,0.039,-1.595,1,0
1120,20110111,0.081,0.315,0,0.327,0.057,-0.96,1,0,0.076,-0.698,0.863,0.125,0.028,-1.711,1,0,0.029,-0.84,1,0,0.069,-0.412,0.625,0.054,0.054,-1.011,0.893,0
1120,20110118,0.075,-0.014,0.115,0.158,0.057,-0.963,1,0,0.089,-0.22,0.455,0.061,0.06,-0.279,0.43,0,0.03,-0.865,1,0,0.067,-0.651,0.812,0,0.062,-0.735,0.891,0
1120,20110125,0.079,0.107,0,0.127,0.059,-0.88,1,0,0.089,-0.178,0.199,0,0.066,0.093,0,0.03,0.034,-1.123,1,0,0.069,-0.521,0.566,0,0.065,-0.618,0.94,0
1120,20110201,0.079,0.093,0,0.149,0.064,-0.71,0.899,0.042,0.089,-0.157,0.631,0.143,0.064,-0.052,0.595,0.143,0.074,0.151,0.089,0.304,0.072,-0.396,0.56,0.089,0.074,-0.225,0.411,0.137
1120,20110208,0.095,0.592,0.012,0.75,0.07,-0.442,0.565,0.054,0.096,0.318,0.298,0.5,0.063,0.002,0.411,0.113,0.064,-0.364,0.774,0.018,0.083,0.03,0.131,0.31,0.078,-0.05,0.143,0.149
1120,20110215,0.088,0.309,0,0.31,0.07,-0.44,0.673,0.054,0.095,0.302,0.065,0.339,0.069,0.518,0,0.506,0.088,1.008,0,0.952,0.079,-0.115,0.065,0.113,0.082,0.194,0.012,0.321
1120,20110222,0.067,-0.349,0.387,0,0.058,-0.934,1,0,0.075,-0.769,1,0,0.054,-0.486,0.762,0,0.066,-0.107,0.149,0,0.063,-0.711,1,0,0.064,-0.673,0.988,0
1120,20110301,0.055,-0.693,1,0,0.053,-1.148,1,0,0.067,-1.225,1,0,0.05,-0.861,1,0,0.058,-0.528,0.94,0,0.054,-1.04,1,0,0.057,-1.077,1,0
1120,20110308,0.066,-0.24,0.399,0.089,0.06,-0.8,0.827,0,0.078,-0.41,0.423,0.22,0.05,-0.893,0.827,0,0.055,-0.752,1,0,0.063,-0.492,0.399,0.06,0.062,-0.662,0.5,0
1120,20110315,0.08,0.27,0,0.226,0.071,-0.234,0.28,0.107,0.093,0.6,0,0.542,0.066,0.686,0.125,0.756,0.059,-0.367,0.619,0.089,0.076,0.148,0.042,0.19,0.074,0.21,0.208,0.268
1120,20110322,0.059,-0.131,0,0,0.058,-0.693,0.946,0,0.075,-0.324,0.393,0,0.059,0.128,0.012,0.125,0.07,0.652,0,1,0.059,-0.362,0.536,0,0.064,-0.242,0.286,0
1120,20110329,0.044,-0.352,0.81,0.131,0.05,-0.928,0.869,0.095,0.068,-0.584,0.875,0.125,0.052,-0.391,0.821,0.095,0.065,0.309,0,0.542,0.047,-0.71,0.869,0.131,0.056,-0.594,0.869,0.125
1120,20110405,0.082,0.766,0,0.827,0.074,0.117,0,0.238,0.096,0.921,0,0.815,0.071,1.481,0,1,0.077,1.47,0,0.804,0.078,0.524,0,0.613,0.08,0.804,0,0.893
1120,20110412,0.071,0.438,0,0.339,0.066,-0.096,0.006,0.054,0.083,0.226,0,0.292,0.062,0.544,0,0.673,0.079,1.705,0,1,0.069,0.164,0,0.196,0.072,0.35,0,0.405
1120,20110419,0.046,-0.02,0.202,0,0.044,-0.47,0.821,0,0.062,-0.346,0.345,0,0.05,-0.136,0,0,0.069,0.814,0,0.887,0.045,-0.337,0.661,0,0.055,-0.254,0.244,0
1120,20110426,0.025,-0.275,0.613,0,0.019,-0.778,1,0,0.04,-0.664,1,0,0.041,-0.335,0.173,0,0.061,0.149,0,0.006,0.022,-0.662,1,0,0.037,-0.578,1,0
1120,20110503,0.026,-0.089,0.464,0.065,0.017,-0.548,0.917,0,0.024,-0.722,1,0,0.029,-0.513,0.863,0,0.054,-0.221,0.333,0,0.022,-0.432,0.577,0,0.03,-0.552,0.708,0
1120,20110510,0.015,-0.461,0.994,0,0.012,-0.671,1,0,0.015,-0.839,1,0,0.017,-0.77,1,0,0.047,-0.498,0.994,0,0.013,-0.639,1,0,0.021,-0.815,1,0
1120,20110517,0.037,0.467,0.593,0.407,0.028,-0.203,0.593,0.305,0.047,-0.102,0.593,0.401,0.028,-0.336,0.623,0.359,0.039,-0.787,1,0,0.033,0.002,0.593,0.407,0.036,-0.231,0.593,0.401
1120,20110524,0.039,0.539,0,0.595,0.041,0.116,0,0.006,0.063,0.317,0,0.28,0.047,0.298,0,0.411,0.041,-0.55,1,0,0.04,0.239,0,0.298,0.046,0.188,0,0.173
1120,20110531,0.017,-0.299,0.78,0,0.013,-0.528,0.946,0,0.028,-0.378,0.56,0,0.027,-0.171,0.077,0,0.037,-0.594,1,0,0.016,-0.494,0.893,0,0.025,-0.418,0.72,0
1120,20110607,0.013,-0.476,1,0,0.008,-0.668,1,0,0.014,-0.725,1,0,0.01,-0.551,0.958,0,0.027,-0.818,1,0,0.011,-0.681,1,0,0.014,-0.689,1,0
1120,20110614,0.009,-0.597,1,0,0.007,-0.73,1,0,0.011,-0.831,1,0,0.005,-0.688,1,0,0.021,-0.893,1,0,0.008,-0.818,1,0,0.011,-0.85,1,0
1120,20110621,0.044,0.222,0.298,0.387,0.032,-0.434,0.488,0.018,0.053,-0.241,0.488,0.185,0.033,-0.234,0.518,0.298,0.02,-0.793,1,0,0.039,-0.236,0.482,0.113,0.037,-0.337,0.488,0.101
1120,20110628,0.055,0.619,0,0.554,0.043,-0.236,0.292,0,0.065,-0.064,0,0,0.05,0.088,0,0,0.029,-0.454,1,0,0.049,0.015,0,0,0.048,-0.076,0,0
1120,20110705,0.056,0.771,0,0.667,0.048,-0.043,0.071,0,0.072,0.198,0,0.262,0.049,0.146,0,0.006,0.03,-0.366,0.994,0,0.052,0.196,0.048,0.423,0.051,0.094,0,0.179
1120,20110712,0.049,0.482,0.375,0.565,0.038,-0.197,0.435,0,0.058,-0.047,0.048,0,0.039,-0.086,0,0,0.03,-0.328,0.982,0,0.044,-0.016,0.435,0.357,0.043,-0.134,0.387,0
1120,20110719,0.028,-0.235,0.292,0.048,0.024,-0.438,0.667,0,0.043,-0.32,0.262,0,0.031,-0.191,0,0,0.029,-0.364,1,0,0.026,-0.432,0.619,0,0.031,-0.405,0.429,0
1120,20110726,0.015,-0.635,1,0,0.008,-0.755,1,0,0.016,-0.848,1,0,0.012,-0.639,0.685,0,0.024,-0.557,1,0,0.012,-0.846,1,0,0.015,-0.852,1,0
1120,20110802,0.062,0.57,0.042,0.601,0.044,-0.253,0.268,0,0.07,-0.038,0.173,0.161,0.016,-0.677,0.833,0,0.022,-0.735,1,0,0.053,0.02,0.22,0.202,0.043,-0.31,0.387,0
1120,20110809,0.039,-0.174,0.399,0.167,0.036,-0.553,0.661,0,0.06,-0.401,0.53,0,0.044,-0.324,0.286,0,0.022,-0.802,1,0,0.038,-0.508,0.565,0,0.04,-0.57,0.655,0
1120,20110816,0.036,-0.346,0.643,0.226,0.016,-1.136,1,0,0.029,-1.269,1,0,0.023,-1.24,1,0,0.023,-1.135,1,0,0.026,-0.978,0.756,0,0.025,-1.276,1,0
1120,20110823,0.028,-0.503,0.702,0,0.018,-1.208,1,0,0.028,-1.424,1,0,0.013,-1.788,1,0,0.023,-1.44,1,0,0.023,-1.111,0.988,0,0.022,-1.732,1,0
1120,20110830,0.02,-0.572,0.821,0,0.006,-1.246,1,0,0.013,-1.601,1,0,0.006,-1.991,1,0,0.02,-2.006,1,0,0.013,-1.246,1,0,0.013,-1.927,1,0
1120,20110906,0.054,0.294,0.083,0.315,0.045,-0.363,0.31,0.012,0.075,0.046,0.089,0.214,0.058,0.276,0.089,0.429,0.042,-0.753,0.601,0,0.049,-0.173,0.238,0.065,0.055,-0.188,0.089,0.095
1120,20110913,0.033,-0.227,0.542,0,0.028,-0.671,1,0,0.05,-0.587,0.815,0,0.043,-0.271,0.173,0,0.052,-0.147,0.036,0,0.031,-0.654,0.821,0,0.041,-0.68,0.81,0
1120,20110920,0.025,-0.407,0.875,0.125,0.016,-0.83,0.881,0,0.034,-0.947,0.881,0.095,0.026,-0.926,1,0,0.044,-0.436,0.845,0,0.021,-0.819,0.875,0.113,0.029,-0.983,0.881,0
1120,20110927,0.085,0.754,0,0.768,0.063,0.025,0,0.048,0.1,0.569,0,0.696,0.058,0.209,0.119,0.22,0.048,-0.26,0.798,0.155,0.074,0.41,0,0.238,0.071,0.379,0,0.22
1120,20111004,0.059,0.05,0.036,0.089,0.05,-0.355,0.536,0,0.075,-0.166,0.232,0.03,0.055,-0.019,0,0.083,0.067,0.367,0,0.393,0.055,-0.167,0.375,0,0.061,-0.045,0.185,0.113
1120,20111011,0.072,0.35,0.31,0.631,0.058,-0.156,0.351,0.095,0.087,0.217,0.405,0.53,0.058,0.121,0.411,0.476,0.056,-0.141,0,0,0.065,0.19,0.333,0.369,0.066,0.15,0.333,0.417
1120,20111018,0.067,0.413,0,0.387,0.056,-0.14,0.018,0,0.084,0.255,0,0.286,0.063,0.384,0,0.464,0.078,0.766,0,0.958,0.062,0.208,0,0.167,0.07,0.341,0,0.387
1120,20111025,0.075,0.86,0,1,0.061,0.054,0,0.024,0.086,0.364,0,0.345,0.056,0.179,0,0.018,0.064,0.273,0,0.452,0.068,0.549,0,0.875,0.068,0.389,0,0.369
1120,20111101,0.069,0.946,0,0.815,0.058,0.101,0,0.405,0.079,0.334,0,0.429,0.051,0.135,0,0.018,0.059,0.193,0,0.077,0.064,0.545,0,0.452,0.063,0.383,0,0.446
1120,20111108,0.073,1.207,0,1,0.059,0.209,0,0.28,0.081,0.534,0,1,0.054,0.342,0,0.929,0.055,0.104,0,0,0.066,0.64,0,1,0.064,0.568,0,1
1120,20111115,0.061,0.664,0,0.81,0.051,-0.095,0,0,0.07,0.143,0,0.196,0.049,0.213,0,0.458,0.054,0.133,0,0.018,0.056,0.177,0,0.268,0.057,0.157,0,0.25
1120,20111122,0.071,0.756,0,0.744,0.058,-0.066,0,0,0.075,0.053,0,0,0.047,-0.062,0,0,0.053,0.065,0,0,0.065,0.266,0,0.446,0.061,0.03,0,0
1120,20111129,0.083,0.968,0,1,0.068,0.053,0,0.054,0.094,0.253,0,0.53,0.06,0.109,0,0.28,0.052,-0.029,0,0,0.076,0.404,0,0.583,0.071,0.193,0,0.351
1120,20111206,0.079,0.591,0,1,0.065,-0.145,0.012,0,0.091,0.18,0,0.208,0.063,0.134,0,0.28,0.059,0.038,0,0,0.072,0.176,0,0.226,0.071,0.131,0,0.095
1120,20111213,0.078,0.434,0,0.475,0.064,-0.256,0.735,0.111,0.087,0.19,0,0.148,0.061,0.067,0,0.117,0.064,0.027,0,0,0.072,0.14,0,0.179,0.071,0.117,0,0.154
1120,20111220,0.081,0.498,0,0.964,0.066,-0.259,0.381,0,0.091,0.402,0,0.53,0.068,0.298,0,0.619,0.078,0.367,0,0.845,0.074,0.212,0,0.411,0.077,0.349,0,0.548
1120,20111227,0.071,0.11,0,0.125,0.06,-0.621,1,0,0.077,-0.296,0.47,0,0.056,-0.082,0,0,0.073,0.203,0,0.405,0.066,-0.333,0.548,0,0.067,-0.144,0.006,0
1120,20120103,0.071,-0.01,0,0,0.058,-0.849,1,0,0.072,-0.673,1,0,0.051,-0.405,0.5,0,0.066,0.07,0,0,0.065,-0.487,1,0,0.064,-0.452,0.946,0
1120,20120110,0.064,-0.385,0.56,0,0.055,-1.03,1,0,0.069,-1.031,1,0,0.048,-0.691,1,0,0.061,-0.035,0,0,0.06,-0.829,1,0,0.059,-0.745,1,0
1120,20120117,0.062,-0.565,1,0,0.052,-1.123,1,0,0.066,-1.407,1,0,0.046,-1.198,1,0,0.057,-0.146,0,0,0.058,-1.054,1,0,0.057,-0.997,1,0
1120,20120124,0.059,-0.661,1,0,0.051,-1.174,1,0,0.063,-1.609,1,0,0.044,-1.445,1,0,0.054,-0.38,0.375,0,0.055,-1.164,1,0,0.054,-1.173,1,0
1120,20120131,0.055,-0.727,1,0,0.049,-1.23,1,0,0.061,-1.677,1,0,0.043,-1.451,1,0,0.052,-0.648,1,0,0.052,-1.181,1,0,0.052,-1.231,1,0
1120,20120207,0.047,-0.982,1,0,0.045,-1.302,1,0,0.057,-1.766,1,0,0.041,-1.519,1,0,0.05,-0.994,1,0,0.046,-1.381,1,0,0.048,-1.438,1,0
1120,20120214,0.04,-1.173,1,0,0.04,-1.398,1,0,0.052,-1.851,1,0,0.039,-1.486,1,0,0.048,-1.215,1,0,0.04,-1.499,1,0,0.044,-1.609,1,0
1120,20120221,0.045,-0.963,1,0,0.042,-1.548,1,0,0.05,-2.139,1,0,0.037,-1.523,1,0,0.048,-1.221,1,0,0.044,-1.39,1,0,0.045,-1.658,1,0
1120,20120228,0.065,-0.368,0.524,0.065,0.053,-1.139,0.952,0,0.057,-1.85,0.887,0.071,0.036,-1.951,1,0,0.046,-1.392,1,0,0.059,-0.838,0.845,0,0.051,-1.366,1,0
1120,20120306,0.084,0.274,0,0.411,0.069,-0.421,0.536,0.054,0.095,0.605,0.006,0.536,0.052,-0.723,0.72,0.274,0.045,-1.641,1,0,0.077,0.024,0.155,0.155,0.069,-0.26,0.554,0.196
1120,20120313,0.074,0.076,0,0,0.064,-0.534,0.881,0,0.085,0.126,0.006,0.238,0.065,0.54,0,0.601,0.049,-1.284,1,0,0.069,-0.132,0,0,0.067,-0.218,0.048,0
1120,20120320,0.051,-0.387,0.554,0,0.053,-0.952,1,0,0.07,-0.627,0.94,0,0.055,-0.276,0.53,0,0.061,-0.143,0.143,0,0.052,-0.65,0.988,0,0.058,-0.656,0.964,0
1120,20120327,0.048,-0.307,0.548,0.018,0.046,-1.146,1,0,0.06,-1.079,1,0,0.048,-0.904,1,0,0.061,-0.181,0.149,0,0.047,-0.752,0.679,0,0.052,-0.851,0.97,0
1120,20120403,0.056,0.056,0.137,0.238,0.051,-0.735,0.685,0,0.061,-0.783,0.881,0,0.044,-1.129,1,0,0.058,-0.385,0.798,0,0.054,-0.382,0.601,0,0.054,-0.603,0.679,0
1120,20120410,0.039,-0.305,0.464,0,0.04,-0.768,0.988,0,0.053,-0.833,1,0,0.04,-1.082,1,0,0.054,-0.606,0.976,0,0.04,-0.631,0.696,0,0.045,-0.787,1,0
1120,20120417,0.018,-0.75,1,0,0.017,-1.19,1,0,0.031,-1.351,1,0,0.031,-1.192,1,0,0.05,-0.889,1,0,0.018,-1.129,1,0,0.029,-1.248,1,0
1120,20120424,0.052,0.346,0.31,0.643,0.032,-0.571,0.613,0,0.047,-0.619,0.643,0.262,0.021,-1.202,1,0,0.045,-1.071,1,0,0.042,-0.258,0.399,0.262,0.04,-0.596,0.643,0
1120,20120501,0.044,0.377,0,0.435,0.042,-0.107,0,0,0.061,0.012,0,0,0.031,-0.539,0.762,0,0.042,-1.108,1,0,0.043,0.056,0,0,0.044,-0.17,0,0
1120,20120508,0.031,0.119,0.569,0.21,0.025,-0.358,0.581,0.03,0.046,-0.214,0.503,0.204,0.024,-0.547,0.766,0,0.037,-1.132,1,0,0.028,-0.236,0.605,0.204,0.033,-0.424,0.701,0.192
1120,20120515,0.06,1.418,0,1,0.05,0.261,0,0.036,0.072,0.38,0,0.482,0.042,0.105,0,0,0.039,-0.868,1,0,0.055,0.602,0,0.738,0.052,0.304,0,0.262
1120,20120522,0.082,2.29,0,1,0.063,0.599,0,0.964,0.083,0.704,0,0.935,0.04,0.1,0,0,0.039,-0.668,1,0,0.073,1.112,0,1,0.062,0.652,0,0.97
1120,20120529,0.086,1.935,0,1,0.071,0.632,0,0.732,0.099,0.948,0,0.929,0.068,0.776,0,0.905,0.044,-0.302,0.304,0,0.079,1.089,0,0.952,0.074,0.925,0,0.905
1120,20120605,0.072,1.314,0,0.815,0.066,0.357,0,0.19,0.085,0.497,0,0.315,0.065,0.644,0,0.661,0.075,1.164,0,0.929,0.069,0.645,0,0.613,0.073,0.735,0,0.625
1120,20120612,0.101,2.119,0,0.935,0.086,0.678,0,0.827,0.1,0.744,0,0.875,0.066,0.637,0,0.744,0.074,1.005,0,1,0.094,1.157,0,0.923,0.085,1.027,0,0.905
1120,20120619,0.076,1.151,0,0.744,0.07,0.314,0.06,0.345,0.082,0.311,0,0.357,0.059,0.36,0,0.56,0.064,0.624,0,0.589,0.073,0.589,0,0.607,0.07,0.571,0,0.601
1120,20120626,0.05,0.429,0.482,0.268,0.043,-0.271,0.81,0.179,0.061,-0.136,0.643,0.179,0.053,0.174,0,0.161,0.061,0.525,0,0.125,0.047,-0.077,0.708,0.196,0.054,0.09,0.512,0.185
1120,20120703,0.068,1.144,0,0.72,0.066,0.308,0.036,0.339,0.082,0.369,0,0.351,0.063,0.453,0,0.565,0.071,0.826,0,0.655,0.067,0.581,0,0.595,0.07,0.667,0,0.619
1120,20120710,0.021,-0.509,0.81,0,0.018,-0.609,0.994,0,0.031,-0.621,0.815,0,0.036,-0.169,0.125,0,0.053,0.338,0,0,0.02,-0.676,0.988,0,0.032,-0.48,0.702,0
1120,20120717,0.014,-0.677,1,0,0.008,-0.734,1,0,0.015,-0.856,1,0,0.014,-0.628,0.964,0,0.04,-0.043,0,0,0.012,-0.798,1,0,0.018,-0.762,1,0
1120,20120724,0.032,-0.121,0.446,0.268,0.023,-0.474,0.589,0,0.014,-0.864,1,0,0.007,-0.735,1,0,0.031,-0.32,0.44,0,0.028,-0.429,0.565,0.006,0.021,-0.67,0.833,0
1120,20120731,0.031,-0.266,0.768,0.232,0.017,-0.706,0.815,0,0.022,-0.86,0.899,0.083,0.006,-0.841,1,0,0.026,-0.619,1,0,0.024,-0.667,0.774,0.113,0.02,-0.832,0.893,0
1120,20120807,0.072,0.718,0,0.708,0.063,0.016,0,0.071,0.092,0.34,0,0.387,0.03,-0.45,0.69,0.179,0.035,-0.441,0.768,0.179,0.068,0.328,0,0.411,0.058,0.028,0.173,0.22
1120,20120814,0.089,1.062,0,1,0.077,0.242,0,0.19,0.098,0.485,0,0.381,0.067,0.295,0,0.179,0.075,0.576,0,1,0.083,0.746,0,0.923,0.081,0.696,0,0.81
1120,20120821,0.096,1.221,0,1,0.085,0.46,0,0.464,0.101,0.653,0,0.601,0.071,0.481,0,0.536,0.077,0.69,0,0.935,0.091,0.997,0,0.911,0.086,0.988,0,0.863
1120,20120828,0.081,0.997,0,0.869,0.073,0.232,0,0.274,0.082,0.212,0,0.321,0.06,0.244,0,0.31,0.071,0.558,0,0.649,0.077,0.636,0,0.744,0.073,0.578,0,0.667
1120,20120904,0.077,0.88,0,0.738,0.068,0.111,0,0.036,0.074,0.018,0,0,0.05,-0.025,0,0,0.057,0.008,0,0,0.072,0.482,0,0.613,0.065,0.218,0,0.435
1120,20120911,0.042,0.001,0.393,0.196,0.033,-0.592,0.946,0,0.048,-0.639,0.833,0,0.042,-0.323,0.286,0,0.052,-0.172,0.006,0,0.038,-0.486,0.661,0,0.043,-0.624,0.958,0
1120,20120918,0.048,0.131,0.006,0.226,0.031,-0.542,0.756,0,0.035,-0.924,1,0,0.032,-0.696,1,0,0.047,-0.307,0.292,0,0.04,-0.354,0.482,0,0.039,-0.674,0.97,0
1120,20120925,0.067,0.428,0,0.405,0.05,-0.199,0.298,0,0.056,-0.45,0.387,0,0.026,-0.912,1,0,0.044,-0.396,0.542,0,0.059,0.065,0.03,0.125,0.049,-0.308,0.381,0
1120,20121002,0.051,-0.083,0.179,0.131,0.043,-0.478,0.726,0,0.051,-0.763,0.958,0,0.025,-1.093,1,0,0.041,-0.599,0.994,0,0.047,-0.335,0.619,0,0.042,-0.655,0.804,0
1120,20121009,0.086,0.623,0,0.655,0.079,0.312,0,0.363,0.089,0.257,0.202,0.429,0.032,-0.971,0.982,0,0.039,-0.797,1,0,0.083,0.666,0,0.661,0.065,0.087,0.024,0.089
1120,20121016,0.083,0.715,0,1,0.075,0.301,0,0.22,0.088,0.35,0,0.399,0.06,0.227,0,0.214,0.038,-0.861,1,0,0.079,0.691,0,1,0.069,0.287,0,0.196
1120,20121023,0.059,0.379,0,0.482,0.056,-0.088,0.06,0,0.069,-0.064,0,0,0.052,0.022,0,0,0.038,-0.816,1,0,0.058,0.162,0,0.214,0.055,-0.123,0,0
1120,20121030,0.036,-0.134,0.048,0,0.037,-0.525,1,0,0.052,-0.356,0.214,0,0.043,-0.184,0,0,0.038,-0.783,1,0,0.037,-0.511,0.875,0,0.041,-0.475,0.946,0
1120,20121106,0.027,-0.4,0.988,0,0.026,-0.659,1,0,0.037,-0.498,0.982,0,0.036,-0.301,0.006,0,0.037,-0.755,1,0,0.027,-0.79,1,0,0.033,-0.558,1,0
1120,20121113,0.04,0.022,0.012,0,0.027,-0.673,1,0,0.032,-0.575,1,0,0.031,-0.31,0,0,0.036,-0.698,1,0,0.034,-0.509,0.599,0,0.033,-0.489,0.562,0
1120,20121120,0.035,-0.252,0.423,0,0.027,-0.692,1,0,0.031,-0.662,1,0,0.029,-0.478,0.405,0,0.036,-0.676,1,0,0.031,-0.582,0.964,0,0.032,-0.718,1,0
1120,20121127,0.029,-0.527,1,0,0.023,-0.798,1,0,0.028,-0.823,1,0,0.025,-0.732,0.994,0,0.035,-0.631,1,0,0.026,-0.812,1,0,0.028,-0.864,1,0
1120,20121204,0.028,-0.73,1,0,0.021,-1.205,1,0,0.027,-1.09,1,0,0.022,-0.807,1,0,0.034,-0.705,1,0,0.025,-1.255,1,0,0.026,-1.081,1,0
1120,20121211,0.026,-1.064,1,0,0.02,-1.807,1,0,0.024,-2.201,1,0,0.02,-0.874,1,0,0.034,-0.806,1,0,0.023,-1.714,1,0,0.025,-1.752,1,0
1120,20121218,0.068,0.114,0.155,0.714,0.061,-0.435,0.202,0,0.067,-0.634,0.286,0,0.019,-1.129,1,0,0.034,-0.848,1,0,0.065,-0.185,0.185,0.268,0.05,-0.782,0.97,0
1120,20121225,0.078,0.424,0,0.768,0.07,-0.186,0.262,0,0.079,-0.179,0.137,0,0.025,-1.043,1,0,0.033,-0.832,1,0,0.075,0.175,0,0.22,0.057,-0.529,0.839,0
1120,20130101,0.089,0.803,0,0.982,0.08,-0.016,0.125,0.113,0.096,0.226,0.06,0.28,0.044,-0.638,0.667,0,0.032,-0.755,1,0,0.085,0.508,0,0.565,0.068,-0.217,0.292,0
1120,20130108,0.089,0.692,0,0.94,0.08,-0.125,0.006,0,0.095,0.137,0,0.024,0.062,0.006,0,0,0.031,-0.777,1,0,0.085,0.355,0,0.387,0.072,-0.118,0,0
1120,20130115,0.085,0.428,0,0.488,0.076,-0.341,0.458,0,0.09,-0.14,0.244,0,0.064,0.011,0.006,0,0.032,-0.782,1,0,0.081,0.022,0,0.024,0.069,-0.336,0.286,0